Regional Weather Roundup
Issued by NWS

Home | Current Version | Previous Version | Text Only | Print | Product List | Glossary On
Versions: 1 2 3 4 5 6 7 8 9 10 11 12 13 14 15 16 17 18 19 20 21 22 23 24 25 26 27 28 29 30 31 32 33 34 35 36 37 38 39 40 41 42 43 44 45 46 47 48 49 50
000
ASUS43 KDMX 191106
RWRIA

WEATHER ROUNDUP FOR IOWA
NATIONAL WEATHER SERVICE DES MOINES IA
500 AM CST SUN FEB 19 2017

NOTE: "FAIR" INDICATES FEW OR NO CLOUDS BELOW 12,000 FEET WITH NO
SIGNIFICANT WEATHER AND/OR OBSTRUCTIONS TO VISIBILITY.

* - THESE STATIONS ARE NOT NWS STATIONS...THUS NOT UNDER NWS
QUALITY CONTROL.  THEY ALSO DO NOT REPORT WEATHER SUCH
AS PRECIPITATION OR FOG.

IAZ001>003-012>014-020>022-031>034-043>046-191200-
   NORTHWEST IOWA

CITY           SKY/WX    TMP DP  RH WIND       PRES   REMARKS
CARROLL *      CLEAR     37  37 100 SE7       29.87S WCI  32
CHEROKEE *     PTCLDY    38  38  98 SE5       29.86R WCI  35
DENISON *      PTCLDY    41  32  70 SE3       29.85R
LE MARS *      CLOUDY    39  34  81 S6        29.84S WCI  35
SHELDON *      MOCLDY    37  37 100 SE7       29.83S WCI  32
SIOUX CITY     PTCLDY    36  32  85 E7        29.83R WCI  30
SPENCER        CLOUDY    37  37 100 SE6       29.87R FOG     WCI  32
STORM LAKE *   PTCLDY    39  36  87 SE9       29.86R WCI  33
$$

IAZ055>058-069>071-079>083-090>094-191200-
   SOUTHWEST IOWA

CITY           SKY/WX    TMP DP  RH WIND       PRES   REMARKS
ATLANTIC *     CLOUDY    34  30  86 CALM      29.89R
CLARINDA *       N/A     34  34 100 CALM      29.92R
COUNCIL BLFS * PTCLDY    43  36  75 S7        29.87R
CRESTON *      CLEAR     41  32  70 SE5       29.92R
HARLAN  *      PTCLDY    34  32  93 CALM      29.91R
LAMONI         CLEAR     46  34  62 SE6       29.91R
RED OAK *      MOCLDY    41  36  81 CALM      29.90R
SHENANDOAH *   PTCLDY    43  39  87 CALM      29.90S
$$

IAZ047>049-059>061-072>074-084-191200-
   CENTRAL IOWA

CITY           SKY/WX    TMP DP  RH WIND       PRES   REMARKS
AMES           FOG       30  30 100 CALM      29.91S VSB 1/2
ANKENY *       CLEAR     37  36  93 CALM      29.93R
BOONE *        PTCLDY    36  36 100 SE6       29.90R FOG     WCI  31
CHARITON *     MOCLDY    37  30  75 SE7       29.91S WCI  32
DES MOINES     CLEAR     44  34  67 VRB5      29.91F
GRINNELL*      CLOUDY    38  37  96 SE5       29.95R WCI  35
KNOXVILLE *    CLEAR     41  32  70 SE7       29.91S
MARSHALLTOWN   FOG       27  27 100 E5        29.92R VSB 1/2 WCI  22
NEWTON *       CLOUDY    36  34  93 SE7       29.92S WCI  30
PELLA *        CLOUDY    36  33  88 SE5       29.94S WCI  32
PERRY *          N/A     35  34  97 E8        29.89F WCI  28
$$

IAZ004>006-015-016-023>025-035-036-191200-
   NORTH CENTRAL IOWA

CITY           SKY/WX    TMP DP  RH WIND       PRES   REMARKS
ALGONA *       CLEAR     39  39 100 SE10      29.88S WCI  32
CLARION *      PTCLDY    39  39 100 SE12      29.90S WCI  32
ESTHERVILLE    FOG       33  33 100 S8        29.87S VSB 1/4 WCI  26
FORT DODGE *   CLOUDY    39  37  93 SE6       29.90S WCI  35
MASON CITY     FOG       29  28  96 SE3       29.92R VSB 1/4
FOREST CITY *  FOG       30  27  86 CALM      29.90F VSB 1/4
IOWA FALLS *   FOG       35  35  97 SE6       29.93R VSB 1/2 WCI  30
$$

IAZ007>011-017>019-026>030-037>042-050>054-066-191200-
   NORTHEAST IOWA

CITY           SKY/WX    TMP DP  RH WIND       PRES   REMARKS
CEDAR RAPIDS   CLOUDY    32  32 100 CALM      29.93R
CHARLES CITY * FOG       32  32 100 SE3       29.93R VSB 1/4
CLINTON *      CLOUDY    31  30  96 CALM      29.96R FOG
DECORAH *      PTCLDY    34  34 100 CALM      29.92S FOG
DUBUQUE        CLEAR     36  34  92 NE3       29.95R FOG
MONTICELLO *   CLOUDY    27  27 100 CALM      29.95R FOG
OELWEIN *      CLEAR     32  32 100 E6        29.93S WCI  26
WATERLOO       FOG       26  25  96 CALM      29.93R VSB 1/4
$$

IAZ064-065-067-068-078-191200-
   EAST CENTRAL IOWA

CITY           SKY/WX    TMP DP  RH WIND       PRES   REMARKS
DAVENPORT      CLOUDY    31  30  96 CALM      29.95R
IOWA CITY      CLOUDY    30  27  88 CALM      29.96R
MUSCATINE *    CLOUDY    30  27  86 CALM      29.96R
QUAD CITIES    CLOUDY    30  25  81 CALM      29.95R
$$

IAZ062-063-075>077-085>089-095>099-191200-
   SOUTHEAST IOWA

CITY           SKY/WX    TMP DP  RH WIND       PRES   REMARKS
BURLINGTON     CLOUDY    37  31  78 CALM      29.94S
FAIRFIELD *    CLOUDY    36  32  87 SE6       29.94R WCI  31
KEOKUK *       CLEAR     37  34  87 E5        29.94S WCI  34
OTTUMWA        CLOUDY    40  34  79 E5        29.92S
WASHINGTON *   CLOUDY    36  36 100 E3        29.96R
$$

ABBREVIATIONS USED IN REMARKS
   TC - TEMPERATURES IN CELSIUS
  WCI - WIND CHILL INDEX
   HX - HEAT INDEX
  VSB - VISIBILITY
$$




USA.gov is the U.S. government's official web portal to all federal, state and local government web resources and services.